STARLINK-11382, 62881

Orbit data source: Space-Track

STARLINK-11382, 62881 is a payload satellite owned by SpaceX/Seattle (US) in LEO that was launched on Tue, 04 Feb 2025 UTC via an FALCON 9 launch vehicle from the Air Force Eastern Test Range (AFETR). Payload-class satellites include a variety of spacecraft equipped with specific instruments for various scientific and technological missions. These include communications satellites like Starlink; space stations such as the ISS; scientific satellites like the Hubble; Earth observation satellites from companies like Planet Labs, Umbra, and HawkEye 360; GPS; miniature CubeSats for education and research; and military/defense satellites.

Loading next visibility...
Identifier
62881, 2025-024C
Orbit
LEO
Country
Flag of USUS
Related business
Manufacturer
SpaceX/Seattle
Mission
Operational Commercial Communications
Bus & Motor
STARLINK V2MD, Unknown motor
Mass
960 kg wet, ~910 kg dry
Launch date (UTC)
2025-02-04 (2 years ago)
Launch vehicle
FALCON 9
Launch site
Air Force Eastern Test Range (AFETR)
Object type
Payload
Rocket body
Debris
Shape & HBR
Box + 2 Pan, 18.1 m
Radar Cross Section
36.964 m², Large (>1 m²)

Expand to show TLE details & history
Last TLE update: 17 hours ago

TLE from 17 hours ago
0 STARLINK-11382
1 62881U 25024C   26263.87620012  .00138958  00000-0  10675-2 0  9998
2 62881  43.0001  85.0037 0001281 295.2077  64.8657 15.70859903 94165
Epoch: 2026-09-20T21:01Z
TLE epoch observation values (Epoch: 2026-09-20T21:01:43.690Z)
Latitude
-0.00006°
Longitude
129.80749°
Altitude
355.843 km
Speed
7.698 km/s
True Right ascension
05h 40m 00s
True Declination
0° 00' 00"
Sunlit
Object was in daylight at epoch
Visualization orbit readout
Latitude
Unknown
Longitude
Unknown
Altitude
Unknown
Speed
Unknown
Apparent Right ascension
Unknown
Apparent Declination
Unknown
Sunlit
N/A
Visualization observer readout
Local Sidereal Time
06:57:00
Azimuth
Unknown
Elevation
Unknown
Doppler factor
Unknown
Orbital elements
Apogee altitude
359.283 km
Perigee altitude
357.557 km
Semi-major axis
6,736.557 km
Eccentricity
0.00013
Inclination
43.0001°
RAAN
85.0037°
Arg. of periapsis
295.2077°
True anomaly
64.87899°
Mean anomaly
64.8657°
Eccentric anomaly
64.87234°
Mean motion
3.92542 °/min
Orbital period
91.71 mins
BSTAR
0.0010675
Loading maneuver chart data...
Computing Atmospheric mass density...
Loading historical data...
Loading historical data...
Loading historical data...
Loading historical data...
Loading historical data...
Loading historical data...
Loading historical data...

Documentation

Showing up to 5 results
|